Snowfall_Accumulation
0.0 0.0 0.0 0.0 0.0 0.0 0.0 0.0 0.0 nan nan nan nan nan nan nan nan nan nan nan nan nan nan nan nan nan nan
0.0 0.0 0.0 0.0 0.0 0.0 0.0 0.0 0.0 nan nan nan nan nan nan nan nan nan nan nan nan nan nan nan nan nan nan
0.1 0.1 0.1 0.0 0.0 0.0 0.0 0.0 0.0 nan nan nan nan nan nan nan nan nan nan nan nan nan nan nan nan nan nan
0.1 0.1 0.1 0.1 0.0 0.0 0.0 0.0 0.0 0.0 nan nan nan nan nan nan nan nan nan nan nan nan nan nan nan nan nan
0.2 0.1 0.1 0.0 0.0 0.0 0.0 0.0 0.0 0.0 0.0 0.0 0.0 0.0 0.0 nan nan nan nan nan nan nan nan nan nan nan nan
0.2 0.0 0.0 0.0 0.0 0.0 0.0 0.2 0.4 0.0 0.0 0.0 0.0 0.0 0.0 0.0 nan nan nan nan nan nan nan nan nan nan nan
0.0 0.0 0.0 0.0 0.0 0.0 0.0 0.2 0.1 0.0 0.0 0.0 0.0 0.0 0.0 0.0 nan nan nan nan nan nan nan nan nan nan nan
0.0 0.0 0.0 0.0 0.0 0.0 0.0 0.0 0.0 0.0 0.0 0.5 0.0 0.0 0.0 0.0 nan nan nan nan nan nan nan nan nan nan nan
nan nan nan nan nan 0.1 0.3 0.6 0.1 0.0 0.0 0.1 0.0 0.0 0.0 0.0 0.0 nan nan nan nan nan nan nan nan nan 0.0
0.0 0.0 nan nan nan 0.0 0.3 1.1 0.9 1.1 0.0 0.8 0.1 0.1 1.2 0.0 0.0 0.0 0.0 nan nan nan nan nan nan 0.0 0.0
0.0 0.0 0.0 0.0 0.0 0.0 0.0 0.6 1.7 1.5 0.0 0.7 2.1 0.9 1.3 1.3 0.0 0.0 0.0 0.0 0.0 0.0 nan nan nan 0.0 0.1
0.0 0.0 0.3 0.5 0.4 0.4 0.0 0.2 0.3 0.3 0.1 0.1 8.1 1.9 4.0 3.9 1.5 0.0 0.0 0.0 0.1 0.2 0.2 nan nan nan nan
0.1 0.6 0.8 0.6 0.3 0.5 0.2 0.1 0.2 0.1 0.0 0.2 1.9 0.6 1.8 3.3 2.9 1.0 0.5 0.2 0.2 0.4 0.3 0.3 0.2 0.2 0.3
0.3 0.1 0.1 1.8 1.0 0.7 1.6 0.9 2.3 1.4 0.2 0.3 0.4 0.5 3.9 1.6 2.4 2.4 0.7 3.8 0.4 0.3 0.4 0.3 0.1 0.1 0.2
0.5 0.4 0.2 0.9 1.2 1.0 1.8 2.2 4.0 3.1 2.6 1.6 0.3 0.2 0.9 1.5 4.4 0.8 0.4 0.5 0.6 0.8 0.9 0.8 0.3 0.2 0.1
1.8 2.3 3.2 3.5 3.7 4.1 3.2 4.0 6.2 4.0 4.3 3.4 3.8 5.3 3.5 2.7 1.3 1.2 0.6 0.9 0.7 0.5 0.5 2.3 1.1 0.3 0.0
6.3 7.9 8.0 7.5 6.4 6.0 6.0 5.2 6.7 5.6 6.4 5.9 9.9 10.1 15.4 10.7 2.2 nan 3.8 1.9 1.5 1.1 0.5 0.8 2.1 0.9 0.2
Water_Equivalent
0.00 0.00 0.00 0.00 0.00 0.00 0.00 0.00 0.00 nan nan nan nan nan nan nan nan nan nan nan nan nan nan nan nan nan nan
0.00 0.01 0.00 0.00 0.00 0.00 0.00 0.00 0.00 nan nan nan nan nan nan nan nan nan nan nan nan nan nan nan nan nan nan
0.05 0.05 0.05 0.00 0.01 0.00 0.00 0.00 0.00 nan nan nan nan nan nan nan nan nan nan nan nan nan nan nan nan nan nan
0.02 0.05 0.04 0.03 0.00 0.01 0.00 0.00 0.00 0.00 nan nan nan nan nan nan nan nan nan nan nan nan nan nan nan nan nan
0.07 0.06 0.03 0.00 0.00 0.00 0.00 0.00 0.00 0.00 0.00 0.00 0.00 0.00 0.00 nan nan nan nan nan nan nan nan nan nan nan nan
0.08 0.00 0.00 0.00 0.00 0.00 0.01 0.08 0.12 0.00 0.00 0.00 0.00 0.00 0.00 0.00 nan nan nan nan nan nan nan nan nan nan nan
0.00 0.00 0.00 0.00 0.00 0.01 0.00 0.07 0.02 0.00 0.00 0.00 0.00 0.00 0.00 0.00 nan nan nan nan nan nan nan nan nan nan nan
0.00 0.00 0.00 0.00 0.00 0.00 0.00 0.00 0.00 0.00 0.00 0.15 0.00 0.00 0.00 0.00 nan nan nan nan nan nan nan nan nan nan nan
nan nan nan nan nan 0.01 0.11 0.18 0.04 0.00 0.00 0.03 0.00 0.00 0.00 0.00 0.00 nan nan nan nan nan nan nan nan nan 0.00
0.00 0.00 nan nan nan 0.00 0.10 0.31 0.25 0.28 0.00 0.22 0.03 0.04 0.28 0.00 0.00 0.00 0.00 nan nan nan nan nan nan 0.00 0.00
0.00 0.00 0.00 0.00 0.00 0.01 0.00 0.19 0.43 0.38 0.00 0.19 0.53 0.25 0.32 0.31 0.00 0.00 0.00 0.00 0.00 0.00 nan nan nan 0.00 0.05
0.00 0.00 0.09 0.15 0.12 0.11 0.01 0.06 0.08 0.09 0.03 0.02 1.75 0.41 0.79 0.66 0.29 0.01 0.01 0.01 0.06 0.07 0.07 nan nan nan nan
0.02 0.16 0.21 0.16 0.09 0.13 0.06 0.04 0.05 0.03 0.01 0.05 0.45 0.14 0.38 0.61 0.50 0.24 0.14 0.09 0.10 0.14 0.12 0.10 0.08 0.08 0.12
0.06 0.02 0.01 0.44 0.24 0.21 0.38 0.23 0.46 0.37 0.07 0.08 0.11 0.10 0.78 0.33 0.49 0.48 0.20 0.78 0.15 0.13 0.14 0.12 0.05 0.02 0.07
0.10 0.08 0.05 0.20 0.26 0.31 0.41 0.48 0.72 0.58 0.52 0.39 0.07 0.07 0.22 0.31 0.79 0.17 0.11 0.15 0.19 0.27 0.28 0.26 0.12 0.08 0.04
0.36 0.43 0.59 0.65 0.69 0.78 0.65 0.77 1.11 0.80 0.80 0.63 0.78 0.96 0.84 0.72 0.32 0.26 0.18 0.26 0.23 0.18 0.19 0.56 0.34 0.11 0.01
1.20 1.41 1.39 1.33 1.17 1.00 1.04 0.95 1.10 1.02 1.16 1.05 1.77 1.90 2.06 1.40 0.52 nan 0.86 0.53 0.42 0.32 0.18 0.26 0.58 0.34 0.07
SL_Ratio
nan nan nan nan nan nan nan nan nan nan nan nan nan nan nan nan nan nan nan nan nan nan nan nan nan nan nan
nan 2.4 nan nan nan nan nan nan nan nan nan nan nan nan nan nan nan nan nan nan nan nan nan nan nan nan nan
2.5 2.5 2.5 5.0 2.6 nan nan nan nan nan nan nan nan nan nan nan nan nan nan nan nan nan nan nan nan nan nan
2.5 2.5 2.5 2.5 nan 2.7 3.3 nan nan nan nan nan nan nan nan nan nan nan nan nan nan nan nan nan nan nan nan
2.5 2.5 2.5 nan nan nan nan nan nan nan nan nan nan nan nan nan nan nan nan nan nan nan nan nan nan nan nan
2.5 nan nan nan nan nan 2.4 2.5 3.0 nan nan nan nan nan nan nan nan nan nan nan nan nan nan nan nan nan nan
nan nan 5.0 nan nan 2.5 2.5 2.7 3.3 nan nan 4.0 nan nan nan nan nan nan nan nan nan nan nan nan nan nan nan
nan nan nan nan nan nan 6.0 6.3 nan nan nan 3.4 nan nan nan nan nan nan nan nan nan nan nan nan nan nan nan
nan nan nan nan nan 4.2 3.0 3.2 3.4 0.0 nan 3.0 3.6 0.0 nan nan nan nan nan nan nan nan nan nan nan nan nan
nan nan nan nan nan nan 2.8 3.5 3.5 4.0 3.3 3.6 2.8 3.1 4.2 nan nan nan nan nan nan nan nan nan nan nan nan
10.0 5.0 nan nan nan 2.9 nan 3.4 3.9 4.1 nan 3.5 3.9 3.6 4.0 4.3 2.0 nan nan nan nan nan nan nan nan nan 2.5
6.7 6.7 3.6 3.5 3.3 3.3 3.3 3.3 3.2 3.8 3.1 3.7 4.6 4.6 5.1 5.9 5.3 3.0 2.6 2.5 2.5 2.5 2.5 nan nan nan nan
4.2 3.9 3.8 3.7 3.9 3.9 3.8 3.6 3.9 3.5 3.3 3.7 4.1 4.4 4.7 5.4 5.9 4.4 3.6 2.5 2.5 2.8 2.7 2.7 2.6 2.5 2.7
4.6 5.9 4.8 4.1 4.1 3.6 4.3 3.9 5.1 3.8 3.3 3.4 4.0 4.6 5.1 4.9 4.9 5.0 3.8 4.8 2.9 2.7 2.6 2.5 2.5 2.5 2.5
4.5 4.8 4.1 4.4 4.4 3.3 4.4 4.5 5.6 5.3 5.0 4.1 3.6 3.7 4.1 5.0 5.6 4.4 3.7 3.5 3.0 3.0 3.2 3.1 2.5 2.5 2.5
4.9 5.2 5.5 5.4 5.4 5.2 5.0 5.2 5.6 5.0 5.3 5.4 4.9 5.5 4.2 3.8 4.2 4.8 3.6 3.5 2.9 2.7 2.7 4.1 3.2 2.5 2.5
5.2 5.6 5.8 5.7 5.5 6.0 5.8 5.5 6.1 5.5 5.5 5.6 5.6 5.3 7.5 7.6 4.2 nan 4.4 3.6 3.5 3.5 2.8 3.1 3.7 2.8 2.5